Tracking 29892 objects as of 21-Nov-2024
HD Live streaming from Space Station
objects crossing your sky now

STARLINK-5605

Track STARLINK-5605 now!
10-day predictions
STARLINK-5605 is classified as:


NORAD ID: 55411
Int'l Code: 2023-014W
Perigee: 577.1 km
Apogee: 581.2 km
Inclination: 70.0 °
Period: 96.1 minutes
Semi major axis: 6950 km
RCS: Unknown
Launch date: January 31, 2023
Source: United States (US)
Launch site: AIR FORCE WESTERN TEST RANGE (AFWTR)
Your satellite tracking list
Your tracking list is empty




NASA's NSSDC Master Catalog

Two Line Element Set (TLE):
1 55411U 23014W   24325.57991510 -.00000423  00000-0 -27630-4 0  9992
2 55411  69.9985 180.0464 0002935 269.5686  90.5136 14.98337032100092
Source of the keplerian elements: AFSPC